Time,TemperatureF,DewpointF,PressureIn,WindDirection,WindDirectionDegrees,WindSpeedMPH,WindSpeedGustMPH,Humidity,HourlyPrecipIn,Conditions,Clouds,dailyrainin,SoftwareType,DateUTC
2013-05-09 00:01:00,56.7,56.1,29.91,NNW,327,0.0,0.0,98,0.00,,---,0.00,VWS V14.01,2013-05-09 04:01:00,
2013-05-09 00:06:00,56.5,55.9,29.91,NNW,327,0.0,0.0,98,0.00,,---,0.00,VWS V14.01,2013-05-09 04:06:00,
2013-05-09 00:11:00,56.5,55.9,29.91,NNW,327,0.0,0.0,98,0.00,,---,0.00,VWS V14.01,2013-05-09 04:11:00,
2013-05-09 00:16:00,56.3,55.8,29.91,NNW,327,0.0,0.0,98,0.00,,---,0.00,VWS V14.01,2013-05-09 04:16:00,
2013-05-09 00:21:00,56.3,55.8,29.91,NNW,327,0.0,0.0,98,0.00,,---,0.00,VWS V14.01,2013-05-09 04:21:00,
2013-05-09 00:26:00,56.1,55.6,29.91,NNW,327,0.0,0.0,98,0.00,,---,0.00,VWS V14.01,2013-05-09 04:26:00,
2013-05-09 00:31:00,56.1,55.6,29.91,NNW,327,0.0,0.0,98,0.00,,---,0.00,VWS V14.01,2013-05-09 04:31:00,
2013-05-09 00:36:00,55.9,55.4,29.91,NNW,327,0.0,0.0,98,0.00,,---,0.00,VWS V14.01,2013-05-09 04:36:00,
2013-05-09 00:41:00,55.8,55.2,29.91,NNW,327,0.0,0.0,98,0.00,,---,0.00,VWS V14.01,2013-05-09 04:41:00,
2013-05-09 00:46:00,55.8,55.2,29.91,NNW,327,0.0,0.0,98,0.00,,---,0.00,VWS V14.01,2013-05-09 04:46:00,
2013-05-09 00:51:00,55.6,55.0,29.91,NNW,327,0.0,0.0,98,0.00,,---,0.00,VWS V14.01,2013-05-09 04:51:00,
2013-05-09 00:56:00,55.4,54.8,29.91,NNW,327,0.0,0.0,98,0.00,,---,0.00,VWS V14.01,2013-05-09 04:56:00,
2013-05-09 01:01:00,55.4,54.8,29.91,NNW,327,0.0,0.0,98,0.00,,---,0.00,VWS V14.01,2013-05-09 05:01:00,
2013-05-09 01:06:00,55.2,54.7,29.91,NNW,327,0.0,0.0,98,0.00,,---,0.00,VWS V14.01,2013-05-09 05:06:00,
2013-05-09 01:11:00,55.0,54.5,29.91,NNW,327,0.0,0.0,98,0.00,,---,0.00,VWS V14.01,2013-05-09 05:11:00,
2013-05-09 01:16:00,55.0,54.5,29.91,NNW,327,0.0,0.0,98,0.00,,---,0.00,VWS V14.01,2013-05-09 05:16:00,
2013-05-09 01:21:00,54.7,54.1,29.91,NNW,327,0.0,0.0,98,0.00,,---,0.00,VWS V14.01,2013-05-09 05:21:00,
2013-05-09 01:26:00,54.7,54.1,29.91,NNW,327,0.0,0.0,98,0.00,,---,0.00,VWS V14.01,2013-05-09 05:26:00,
2013-05-09 01:31:00,54.7,54.1,29.91,NNW,327,0.0,0.0,98,0.04,,---,0.04,VWS V14.01,2013-05-09 05:31:00,
2013-05-09 01:36:00,54.5,54.0,29.88,NNW,327,0.0,0.0,98,0.04,,---,0.04,VWS V14.01,2013-05-09 05:36:00,
2013-05-09 01:41:00,54.5,54.0,29.88,NNW,327,0.0,0.0,98,0.04,,---,0.04,VWS V14.01,2013-05-09 05:41:00,
2013-05-09 01:46:00,54.5,54.0,29.91,NNW,327,0.0,0.0,98,0.04,,---,0.04,VWS V14.01,2013-05-09 05:46:00,
2013-05-09 01:51:00,54.3,53.8,29.91,NNW,327,0.0,0.0,98,0.04,,---,0.04,VWS V14.01,2013-05-09 05:51:00,
2013-05-09 01:56:00,54.1,53.6,29.91,NNW,327,0.0,0.0,98,0.04,,---,0.04,VWS V14.01,2013-05-09 05:56:00,
2013-05-09 02:01:00,54.1,53.6,29.91,NNW,327,0.0,0.0,98,0.04,,---,0.04,VWS V14.01,2013-05-09 06:01:00,
2013-05-09 02:06:00,54.0,53.4,29.91,NNW,327,0.0,0.0,98,0.04,,---,0.04,VWS V14.01,2013-05-09 06:06:00,
2013-05-09 02:11:00,53.8,53.2,29.91,NNW,327,0.0,0.0,98,0.04,,---,0.04,VWS V14.01,2013-05-09 06:11:00,
2013-05-09 02:16:00,53.6,53.0,29.91,NNW,327,0.0,0.0,98,0.04,,---,0.04,VWS V14.01,2013-05-09 06:16:00,
2013-05-09 02:21:00,53.4,52.9,29.88,NNW,327,0.0,0.0,98,0.04,,---,0.04,VWS V14.01,2013-05-09 06:21:00,
2013-05-09 02:26:00,53.4,52.9,29.88,NNW,327,0.0,0.0,98,0.04,,---,0.04,VWS V14.01,2013-05-09 06:26:00,
2013-05-09 02:31:00,53.2,52.7,29.88,NNW,327,0.0,0.0,98,0.00,,---,0.04,VWS V14.01,2013-05-09 06:31:00,
2013-05-09 02:36:00,53.2,52.7,29.88,NNW,327,0.0,0.0,98,0.00,,---,0.04,VWS V14.01,2013-05-09 06:36:00,
2013-05-09 02:41:00,53.1,52.5,29.88,NNW,327,0.0,0.0,98,0.00,,---,0.04,VWS V14.01,2013-05-09 06:41:00,
2013-05-09 02:46:00,53.1,52.5,29.88,NNW,327,0.0,0.0,98,0.00,,---,0.04,VWS V14.01,2013-05-09 06:46:00,
2013-05-09 02:51:00,52.9,52.3,29.88,NNW,327,0.0,0.0,98,0.00,,---,0.04,VWS V14.01,2013-05-09 06:51:00,
2013-05-09 02:56:00,52.9,52.3,29.88,NNW,327,0.0,0.0,98,0.00,,---,0.04,VWS V14.01,2013-05-09 06:56:00,
2013-05-09 03:01:00,52.7,52.2,29.88,NNW,327,0.0,0.0,98,0.00,,---,0.04,VWS V14.01,2013-05-09 07:01:00,
2013-05-09 03:06:00,52.7,52.2,29.88,NNW,327,0.0,0.0,98,0.00,,---,0.04,VWS V14.01,2013-05-09 07:06:00,
2013-05-09 03:11:00,52.5,52.0,29.88,NNW,327,0.0,0.0,98,0.00,,---,0.04,VWS V14.01,2013-05-09 07:11:00,
2013-05-09 03:16:00,52.5,52.0,29.88,NNW,327,0.0,0.0,98,0.00,,---,0.04,VWS V14.01,2013-05-09 07:16:00,
2013-05-09 03:21:00,52.3,51.8,29.88,NNW,327,0.0,0.0,98,0.00,,---,0.04,VWS V14.01,2013-05-09 07:21:00,
2013-05-09 03:26:00,52.3,51.8,29.88,NNW,327,0.0,0.0,98,0.00,,---,0.04,VWS V14.01,2013-05-09 07:26:00,
2013-05-09 03:31:00,52.2,51.6,29.88,NNW,327,0.0,0.0,98,0.00,,---,0.04,VWS V14.01,2013-05-09 07:31:00,
2013-05-09 03:36:00,52.0,51.4,29.91,NNW,327,0.0,0.0,98,0.00,,---,0.04,VWS V14.01,2013-05-09 07:36:00,
2013-05-09 03:41:00,52.0,51.4,29.91,NNW,327,0.0,0.0,98,0.00,,---,0.04,VWS V14.01,2013-05-09 07:41:00,
2013-05-09 03:46:00,52.0,51.4,29.91,NNW,327,0.0,0.0,98,0.00,,---,0.04,VWS V14.01,2013-05-09 07:46:00,
2013-05-09 03:51:00,51.8,51.3,29.88,NNW,327,0.0,0.0,98,0.00,,---,0.04,VWS V14.01,2013-05-09 07:51:00,
2013-05-09 03:56:00,51.6,51.1,29.88,NNW,327,0.0,0.0,98,0.00,,---,0.04,VWS V14.01,2013-05-09 07:56:00,
2013-05-09 04:01:00,51.6,51.1,29.88,NNW,327,0.0,0.0,98,0.00,,---,0.04,VWS V14.01,2013-05-09 08:01:00,
2013-05-09 04:06:00,51.6,51.1,29.88,NNW,327,0.0,0.0,98,0.00,,---,0.04,VWS V14.01,2013-05-09 08:06:00,
2013-05-09 04:11:00,51.4,50.9,29.88,NNW,327,0.0,0.0,98,0.00,,---,0.04,VWS V14.01,2013-05-09 08:11:00,
2013-05-09 04:16:00,51.3,50.7,29.88,NNW,327,0.0,0.0,98,0.00,,---,0.04,VWS V14.01,2013-05-09 08:16:00,
2013-05-09 04:21:00,51.3,50.7,29.91,NNW,327,0.0,0.0,98,0.00,,---,0.04,VWS V14.01,2013-05-09 08:21:00,
2013-05-09 04:26:00,51.3,50.7,29.91,NNW,327,0.0,0.0,98,0.00,,---,0.04,VWS V14.01,2013-05-09 08:26:00,
2013-05-09 04:31:00,51.3,50.7,29.91,NNW,327,0.0,0.0,98,0.00,,---,0.04,VWS V14.01,2013-05-09 08:31:00,
2013-05-09 04:36:00,51.1,50.5,29.91,NNW,327,0.0,0.0,98,0.00,,---,0.04,VWS V14.01,2013-05-09 08:36:00,
2013-05-09 04:41:00,51.1,50.5,29.91,NNW,327,0.0,0.0,98,0.00,,---,0.04,VWS V14.01,2013-05-09 08:41:00,
2013-05-09 04:46:00,51.1,50.5,29.91,NNW,327,0.0,0.0,98,0.00,,---,0.04,VWS V14.01,2013-05-09 08:46:00,
2013-05-09 04:51:00,50.9,50.4,29.91,NNW,327,0.0,0.0,98,0.00,,---,0.04,VWS V14.01,2013-05-09 08:51:00,
2013-05-09 04:56:00,50.9,50.4,29.91,NNW,327,0.0,0.0,98,0.00,,---,0.04,VWS V14.01,2013-05-09 08:56:00,
2013-05-09 05:01:00,50.7,50.2,29.91,NNW,327,0.0,0.0,98,0.00,,---,0.04,VWS V14.01,2013-05-09 09:01:00,
2013-05-09 05:06:00,50.7,50.2,29.91,NNW,327,0.0,0.0,98,0.00,,---,0.04,VWS V14.01,2013-05-09 09:06:00,
2013-05-09 05:11:00,50.7,50.2,29.91,NNW,327,0.0,0.0,98,0.00,,---,0.04,VWS V14.01,2013-05-09 09:11:00,
2013-05-09 05:16:00,50.7,50.2,29.91,NNW,327,0.0,0.0,98,0.00,,---,0.04,VWS V14.01,2013-05-09 09:16:00,
2013-05-09 05:21:00,50.7,50.2,29.88,NNW,327,0.0,0.0,98,0.00,,---,0.04,VWS V14.01,2013-05-09 09:21:00,
2013-05-09 05:26:00,50.5,50.0,29.88,NNW,327,0.0,0.0,98,0.00,,---,0.04,VWS V14.01,2013-05-09 09:26:00,
2013-05-09 05:31:00,50.5,50.0,29.88,NNW,327,0.0,0.0,98,0.00,,---,0.04,VWS V14.01,2013-05-09 09:31:00,
2013-05-09 05:36:00,50.5,50.0,29.91,NNW,327,0.0,0.0,98,0.00,,---,0.04,VWS V14.01,2013-05-09 09:36:00,
2013-05-09 05:41:00,50.4,49.8,29.91,NNW,327,0.0,0.0,98,0.00,,---,0.04,VWS V14.01,2013-05-09 09:41:00,
2013-05-09 05:46:00,50.4,49.8,29.91,NNW,327,0.0,0.0,98,0.00,,---,0.04,VWS V14.01,2013-05-09 09:46:00,
2013-05-09 05:51:00,50.4,49.8,29.91,NNW,327,0.0,0.0,98,0.00,,---,0.04,VWS V14.01,2013-05-09 09:51:00,
2013-05-09 05:56:00,50.4,49.8,29.91,NNW,327,0.0,0.0,98,0.00,,---,0.04,VWS V14.01,2013-05-09 09:56:00,
2013-05-09 06:01:00,50.4,49.8,29.91,NNW,327,0.0,0.0,98,0.00,,---,0.04,VWS V14.01,2013-05-09 10:01:00,
2013-05-09 06:05:00,50.4,49.8,29.91,NNW,327,0.0,0.0,98,0.00,,---,0.04,VWS V14.01,2013-05-09 10:05:00,
2013-05-09 06:10:00,50.4,49.8,29.91,NNW,327,0.0,0.0,98,0.00,,---,0.04,VWS V14.01,2013-05-09 10:10:00,
2013-05-09 06:15:00,50.4,49.8,29.91,NNW,327,0.0,0.0,98,0.00,,---,0.04,VWS V14.01,2013-05-09 10:15:00,
2013-05-09 06:20:00,50.2,49.6,29.91,NNW,327,0.0,0.0,98,0.00,,---,0.04,VWS V14.01,2013-05-09 10:20:00,
2013-05-09 06:25:00,50.2,49.6,29.91,NNW,327,0.0,0.0,98,0.00,,---,0.04,VWS V14.01,2013-05-09 10:25:00,
2013-05-09 06:30:00,50.2,49.6,29.91,NNW,327,0.0,0.0,98,0.00,,---,0.04,VWS V14.01,2013-05-09 10:30:00,
2013-05-09 06:35:00,50.2,49.6,29.94,NNW,327,0.0,0.0,98,0.00,,---,0.04,VWS V14.01,2013-05-09 10:35:00,
2013-05-09 06:40:00,50.2,49.6,29.94,NNW,327,0.0,0.0,98,0.00,,---,0.04,VWS V14.01,2013-05-09 10:40:00,
2013-05-09 06:45:00,50.2,49.6,29.94,NNW,327,0.0,0.0,98,0.00,,---,0.04,VWS V14.01,2013-05-09 10:45:00,
2013-05-09 06:50:00,50.2,49.6,29.94,NNW,327,0.0,0.0,98,0.00,,---,0.04,VWS V14.01,2013-05-09 10:50:00,
2013-05-09 06:55:00,50.4,49.8,29.94,NNW,327,0.0,0.0,98,0.00,,---,0.04,VWS V14.01,2013-05-09 10:55:00,
2013-05-09 07:00:00,50.5,50.0,29.94,NNW,327,0.0,0.0,98,0.00,,---,0.04,VWS V14.01,2013-05-09 11:00:00,
2013-05-09 07:05:00,50.7,50.2,29.94,NNW,327,0.0,0.0,98,0.00,,---,0.04,VWS V14.01,2013-05-09 11:05:00,
2013-05-09 07:10:00,50.9,50.4,29.94,NNW,327,0.0,0.0,98,0.00,,---,0.04,VWS V14.01,2013-05-09 11:10:00,
2013-05-09 07:15:00,51.1,50.5,29.94,NNW,327,0.0,0.0,98,0.00,,---,0.04,VWS V14.01,2013-05-09 11:15:00,
2013-05-09 07:20:00,51.3,50.7,29.94,NNW,327,0.0,0.0,98,0.00,,---,0.04,VWS V14.01,2013-05-09 11:20:00,
2013-05-09 07:25:00,51.4,50.9,29.94,NNW,327,0.0,0.0,98,0.00,,---,0.04,VWS V14.01,2013-05-09 11:25:00,
2013-05-09 07:30:00,51.6,51.1,29.94,NNW,327,0.0,0.0,98,0.00,,---,0.04,VWS V14.01,2013-05-09 11:30:00,
2013-05-09 07:35:00,52.0,51.4,29.97,NNW,327,0.0,0.0,98,0.00,,---,0.04,VWS V14.01,2013-05-09 11:35:00,
2013-05-09 07:40:00,52.2,51.6,29.97,NNW,327,0.0,0.0,98,0.00,,---,0.04,VWS V14.01,2013-05-09 11:40:00,
2013-05-09 07:45:00,52.5,52.0,29.97,NNW,327,0.0,0.0,98,0.00,,---,0.04,VWS V14.01,2013-05-09 11:45:00,
2013-05-09 07:50:00,52.9,52.3,29.97,NNW,327,0.0,0.0,98,0.00,,---,0.04,VWS V14.01,2013-05-09 11:50:00,
2013-05-09 07:55:00,53.1,52.5,29.97,NNW,327,0.0,0.0,98,0.00,,---,0.04,VWS V14.01,2013-05-09 11:55:00,
2013-05-09 08:00:00,53.4,52.9,29.97,NNW,327,0.0,0.0,98,0.00,,---,0.04,VWS V14.01,2013-05-09 12:00:00,
2013-05-09 08:05:00,53.6,53.0,29.97,NNW,327,0.0,0.0,98,0.00,,---,0.04,VWS V14.01,2013-05-09 12:05:00,
2013-05-09 08:10:00,54.0,53.4,29.97,NNW,327,0.0,0.0,98,0.00,,---,0.04,VWS V14.01,2013-05-09 12:10:00,
2013-05-09 08:15:00,54.3,53.8,29.97,NNW,327,0.0,0.0,98,0.00,,---,0.04,VWS V14.01,2013-05-09 12:15:00,
2013-05-09 08:20:00,54.5,54.0,29.97,NNW,327,0.0,0.0,98,0.00,,---,0.04,VWS V14.01,2013-05-09 12:20:00,
2013-05-09 08:25:00,55.0,54.5,29.97,NNW,327,0.0,0.0,98,0.00,,---,0.04,VWS V14.01,2013-05-09 12:25:00,
2013-05-09 08:30:00,55.4,54.8,29.97,NNW,327,0.0,0.0,98,0.00,,---,0.04,VWS V14.01,2013-05-09 12:30:00,
2013-05-09 08:35:00,55.8,55.2,29.97,NNW,327,0.0,0.0,98,0.00,,---,0.04,VWS V14.01,2013-05-09 12:35:00,
2013-05-09 08:40:00,56.1,55.6,29.97,NNW,327,0.0,0.0,98,0.00,,---,0.04,VWS V14.01,2013-05-09 12:40:00,
2013-05-09 08:45:00,56.5,55.9,29.97,NNW,327,0.0,0.0,98,0.00,,---,0.04,VWS V14.01,2013-05-09 12:45:00,
2013-05-09 08:50:00,56.8,56.3,29.97,NNW,327,0.0,0.0,98,0.00,,---,0.04,VWS V14.01,2013-05-09 12:50:00,
2013-05-09 08:55:00,57.2,56.6,29.97,WNW,300,0.0,0.0,98,0.00,,---,0.04,VWS V14.01,2013-05-09 12:55:00,
2013-05-09 09:00:00,57.7,57.2,29.97,WNW,300,0.0,0.0,98,0.00,,---,0.04,VWS V14.01,2013-05-09 13:00:00,
2013-05-09 09:05:00,58.1,57.5,29.97,WNW,300,0.0,0.0,98,0.00,,---,0.04,VWS V14.01,2013-05-09 13:05:00,
2013-05-09 09:10:00,58.5,57.9,29.97,WNW,300,0.0,0.0,98,0.00,,---,0.04,VWS V14.01,2013-05-09 13:10:00,
2013-05-09 09:15:00,59.0,58.4,29.97,WNW,300,0.0,0.0,98,0.00,,---,0.04,VWS V14.01,2013-05-09 13:15:00,
2013-05-09 09:20:00,59.4,58.8,29.97,WNW,300,0.0,0.0,98,0.00,,---,0.04,VWS V14.01,2013-05-09 13:20:00,
2013-05-09 09:25:00,59.9,59.3,29.97,WNW,300,0.0,0.0,98,0.00,,---,0.04,VWS V14.01,2013-05-09 13:25:00,
2013-05-09 09:30:00,60.3,59.7,29.97,North,0,0.0,0.0,98,0.00,,---,0.04,VWS V14.01,2013-05-09 13:30:00,
2013-05-09 09:35:00,60.8,60.2,29.97,North,0,0.0,0.0,98,0.00,,---,0.04,VWS V14.01,2013-05-09 13:35:00,
2013-05-09 09:40:00,61.3,60.8,29.97,WNW,285,0.0,0.0,98,0.00,,---,0.04,VWS V14.01,2013-05-09 13:40:00,
2013-05-09 09:45:00,61.9,61.3,29.97,NW,308,0.0,0.0,98,0.00,,---,0.04,VWS V14.01,2013-05-09 13:45:00,
2013-05-09 09:50:00,62.2,61.4,29.97,West,276,0.0,0.0,97,0.00,,---,0.04,VWS V14.01,2013-05-09 13:50:00,
2013-05-09 09:55:00,62.8,61.3,29.97,NNW,340,0.0,2.2,95,0.00,,---,0.04,VWS V14.01,2013-05-09 13:55:00,
2013-05-09 10:00:00,63.3,61.0,29.97,West,264,0.0,0.0,92,0.00,,---,0.04,VWS V14.01,2013-05-09 14:00:00,
2013-05-09 10:05:00,63.9,60.2,29.97,NNW,327,0.0,0.0,88,0.00,,---,0.04,VWS V14.01,2013-05-09 14:05:00,
2013-05-09 10:10:00,64.4,59.5,29.97,North,357,0.0,0.0,84,0.00,,---,0.04,VWS V14.01,2013-05-09 14:10:00,
2013-05-09 10:15:00,64.8,58.8,29.97,WNW,296,0.0,0.0,81,0.00,,---,0.04,VWS V14.01,2013-05-09 14:15:00,
2013-05-09 10:20:00,65.3,58.3,29.97,NNW,339,2.7,2.7,78,0.00,,---,0.04,VWS V14.01,2013-05-09 14:20:00,
2013-05-09 10:25:00,65.7,57.5,29.97,NE,41,0.0,0.0,75,0.04,,---,0.08,VWS V14.01,2013-05-09 14:25:00,
2013-05-09 10:30:00,66.0,57.1,29.97,NE,35,0.0,2.7,73,0.04,,---,0.08,VWS V14.01,2013-05-09 14:30:00,
2013-05-09 10:35:00,66.2,56.5,29.97,West,281,5.4,5.4,71,0.04,,---,0.08,VWS V14.01,2013-05-09 14:35:00,
2013-05-09 10:40:00,66.6,56.5,29.97,SW,230,0.0,0.0,70,0.04,,---,0.08,VWS V14.01,2013-05-09 14:40:00,
2013-05-09 10:45:00,66.7,56.3,29.97,East,82,0.0,0.0,69,0.04,,---,0.08,VWS V14.01,2013-05-09 14:45:00,
2013-05-09 10:50:00,67.1,56.2,29.97,West,271,0.0,2.2,68,0.04,,---,0.08,VWS V14.01,2013-05-09 14:50:00,
2013-05-09 10:55:00,67.5,56.1,29.97,WSW,256,0.0,0.0,67,0.04,,---,0.08,VWS V14.01,2013-05-09 14:55:00,
2013-05-09 11:00:00,67.6,55.5,29.97,ENE,60,0.0,0.0,65,0.04,,---,0.08,VWS V14.01,2013-05-09 15:00:00,
2013-05-09 11:05:00,68.0,55.8,29.97,West,262,3.1,5.8,65,0.04,,---,0.08,VWS V14.01,2013-05-09 15:05:00,
2013-05-09 11:10:00,68.2,55.5,29.97,NNE,19,0.0,4.5,64,0.04,,---,0.08,VWS V14.01,2013-05-09 15:10:00,
2013-05-09 11:15:00,68.4,55.3,29.97,WNW,300,3.6,3.6,63,0.04,,---,0.08,VWS V14.01,2013-05-09 15:15:00,
2013-05-09 11:20:00,68.5,55.5,29.97,NW,316,4.0,4.0,63,0.04,,---,0.08,VWS V14.01,2013-05-09 15:20:00,
2013-05-09 11:25:00,68.7,54.7,29.97,SW,231,4.0,4.0,61,0.00,,---,0.08,VWS V14.01,2013-05-09 15:25:00,
2013-05-09 11:30:00,68.9,54.9,29.97,NE,47,3.6,3.6,61,0.00,,---,0.08,VWS V14.01,2013-05-09 15:30:00,
2013-05-09 11:35:00,69.1,55.1,29.97,SW,236,0.0,0.0,61,0.00,,---,0.08,VWS V14.01,2013-05-09 15:35:00,
2013-05-09 11:40:00,69.4,54.5,29.97,West,273,4.0,4.0,59,0.00,,---,0.08,VWS V14.01,2013-05-09 15:40:00,
2013-05-09 11:45:00,69.6,54.7,29.97,NE,49,3.1,5.4,59,0.00,,---,0.08,VWS V14.01,2013-05-09 15:45:00,
2013-05-09 11:50:00,69.6,54.7,29.97,WNW,303,0.0,0.0,59,0.00,,---,0.08,VWS V14.01,2013-05-09 15:50:00,
2013-05-09 11:55:00,69.8,54.4,29.97,East,85,0.0,0.0,58,0.00,,---,0.08,VWS V14.01,2013-05-09 15:55:00,
2013-05-09 12:00:00,69.8,54.8,29.97,ENE,76,0.0,0.0,59,0.00,,---,0.08,VWS V14.01,2013-05-09 16:00:00,
2013-05-09 12:05:00,70.0,55.0,29.97,ESE,116,0.0,2.7,59,0.00,,---,0.08,VWS V14.01,2013-05-09 16:05:00,
2013-05-09 12:10:00,70.5,54.6,29.97,WSW,253,3.1,4.0,57,0.00,,---,0.08,VWS V14.01,2013-05-09 16:10:00,
2013-05-09 12:15:00,70.5,54.6,29.97,SE,133,0.0,0.0,57,0.00,,---,0.08,VWS V14.01,2013-05-09 16:15:00,
2013-05-09 12:20:00,70.9,54.4,29.97,NW,311,2.7,3.6,56,0.00,,---,0.08,VWS V14.01,2013-05-09 16:20:00,
2013-05-09 12:25:00,70.9,53.9,29.97,WNW,289,0.0,0.0,55,0.00,,---,0.08,VWS V14.01,2013-05-09 16:25:00,
2013-05-09 12:30:00,71.1,55.5,29.97,WNW,289,0.0,0.0,58,0.00,,---,0.08,VWS V14.01,2013-05-09 16:30:00,
2013-05-09 12:35:00,71.2,55.2,29.97,ESE,121,0.0,0.0,57,0.00,,---,0.08,VWS V14.01,2013-05-09 16:35:00,
2013-05-09 12:40:00,71.6,54.6,29.97,NNW,333,0.0,0.0,55,0.00,,---,0.08,VWS V14.01,2013-05-09 16:40:00,
2013-05-09 12:45:00,71.8,55.8,29.97,South,181,0.0,0.0,57,0.00,,---,0.08,VWS V14.01,2013-05-09 16:45:00,
2013-05-09 12:50:00,72.1,54.6,29.97,NE,37,0.0,0.0,54,0.00,,---,0.08,VWS V14.01,2013-05-09 16:50:00,
2013-05-09 12:55:00,72.3,54.2,29.97,WSW,254,0.0,3.1,53,0.00,,---,0.08,VWS V14.01,2013-05-09 16:55:00,
2013-05-09 13:00:00,72.7,54.1,29.97,NW,317,2.7,2.7,52,0.00,,---,0.08,VWS V14.01,2013-05-09 17:00:00,
2013-05-09 13:05:00,72.9,53.7,29.97,NNE,26,0.0,0.0,51,0.00,,---,0.08,VWS V14.01,2013-05-09 17:05:00,
2013-05-09 13:10:00,72.9,53.7,29.97,East,87,0.0,0.0,51,0.00,,---,0.08,VWS V14.01,2013-05-09 17:10:00,
2013-05-09 13:15:00,72.9,53.7,29.97,ENE,72,0.0,0.0,51,0.00,,---,0.08,VWS V14.01,2013-05-09 17:15:00,
2013-05-09 13:20:00,72.7,53.5,29.97,South,190,0.0,3.1,51,0.00,,---,0.08,VWS V14.01,2013-05-09 17:20:00,
2013-05-09 13:25:00,73.2,52.9,29.97,ENE,63,0.0,0.0,49,0.00,,---,0.08,VWS V14.01,2013-05-09 17:25:00,
2013-05-09 13:30:00,73.4,52.0,29.97,WSW,241,0.0,0.0,47,0.00,,---,0.08,VWS V14.01,2013-05-09 17:30:00,
2013-05-09 13:35:00,73.6,52.7,29.97,ENE,61,0.0,0.0,48,0.00,,---,0.08,VWS V14.01,2013-05-09 17:35:00,
2013-05-09 13:40:00,73.6,52.7,29.97,NE,54,0.0,0.0,48,0.00,,---,0.08,VWS V14.01,2013-05-09 17:40:00,
2013-05-09 13:45:00,73.8,52.9,29.97,SW,216,0.0,3.1,48,0.00,,---,0.08,VWS V14.01,2013-05-09 17:45:00,
2013-05-09 13:50:00,73.8,54.5,29.97,ESE,102,0.0,0.0,51,0.00,,---,0.08,VWS V14.01,2013-05-09 17:50:00,
2013-05-09 13:55:00,73.8,54.0,29.97,WNW,301,3.6,4.0,50,0.00,,---,0.08,VWS V14.01,2013-05-09 17:55:00,
2013-05-09 14:00:00,74.1,53.2,29.97,SW,219,0.0,2.2,48,0.00,,---,0.08,VWS V14.01,2013-05-09 18:00:00,
2013-05-09 14:05:00,74.1,52.6,29.97,South,176,0.0,3.1,47,0.00,,---,0.08,VWS V14.01,2013-05-09 18:05:00,
2013-05-09 14:10:00,74.5,53.5,29.97,West,265,0.0,0.0,48,0.00,,---,0.08,VWS V14.01,2013-05-09 18:10:00,
2013-05-09 14:15:00,74.5,53.0,29.97,WNW,291,0.0,0.0,47,0.00,,---,0.08,VWS V14.01,2013-05-09 18:15:00,
2013-05-09 14:20:00,74.3,52.8,29.97,SSW,212,0.0,0.0,47,0.00,,---,0.08,VWS V14.01,2013-05-09 18:20:00,
2013-05-09 14:25:00,74.3,52.8,29.97,North,1,0.0,0.0,47,0.00,,---,0.08,VWS V14.01,2013-05-09 18:25:00,
2013-05-09 14:30:00,74.7,54.8,29.97,NW,317,0.0,0.0,50,0.00,,---,0.08,VWS V14.01,2013-05-09 18:30:00,
2013-05-09 14:35:00,74.8,53.8,29.97,West,276,0.0,0.0,48,0.00,,---,0.08,VWS V14.01,2013-05-09 18:35:00,
2013-05-09 14:40:00,74.8,53.3,29.97,WNW,291,0.0,0.0,47,0.00,,---,0.08,VWS V14.01,2013-05-09 18:40:00,
2013-05-09 14:45:00,74.7,53.7,29.97,North,1,0.0,0.0,48,0.00,,---,0.08,VWS V14.01,2013-05-09 18:45:00,
2013-05-09 14:50:00,74.7,53.7,29.97,WNW,286,0.0,0.0,48,0.00,,---,0.08,VWS V14.01,2013-05-09 18:50:00,
2013-05-09 14:55:00,75.0,54.0,29.97,NNW,330,0.0,0.0,48,0.00,,---,0.08,VWS V14.01,2013-05-09 18:55:00,
2013-05-09 15:00:00,75.4,52.6,29.97,SSW,209,2.2,2.7,45,0.00,,---,0.08,VWS V14.01,2013-05-09 19:00:00,
2013-05-09 15:05:00,75.6,52.1,29.94,South,178,0.0,0.0,44,0.00,,---,0.08,VWS V14.01,2013-05-09 19:05:00,
2013-05-09 15:10:00,75.6,52.8,29.94,West,262,0.0,2.7,45,0.00,,---,0.08,VWS V14.01,2013-05-09 19:10:00,
2013-05-09 15:15:00,75.6,52.8,29.94,NNE,29,0.0,0.0,45,0.00,,---,0.08,VWS V14.01,2013-05-09 19:15:00,
2013-05-09 15:20:00,75.7,52.3,29.94,SSW,207,0.0,0.0,44,0.00,,---,0.08,VWS V14.01,2013-05-09 19:20:00,
2013-05-09 15:25:00,76.1,52.0,29.94,WNW,289,0.0,0.0,43,0.00,,---,0.08,VWS V14.01,2013-05-09 19:25:00,
2013-05-09 15:30:00,76.1,52.6,29.94,North,6,0.0,0.0,44,0.00,,---,0.08,VWS V14.01,2013-05-09 19:30:00,
2013-05-09 15:35:00,76.3,52.2,29.94,North,1,0.0,0.0,43,0.00,,---,0.08,VWS V14.01,2013-05-09 19:35:00,
2013-05-09 15:40:00,76.3,52.8,29.94,NNW,327,0.0,0.0,44,0.00,,---,0.08,VWS V14.01,2013-05-09 19:40:00,
2013-05-09 15:45:00,76.6,52.5,29.94,NW,316,0.0,0.0,43,0.00,,---,0.08,VWS V14.01,2013-05-09 19:45:00,
2013-05-09 15:50:00,76.6,53.1,29.94,SSE,153,0.0,0.0,44,0.00,,---,0.08,VWS V14.01,2013-05-09 19:50:00,
2013-05-09 15:55:00,76.6,53.7,29.94,SSW,206,3.6,3.6,45,0.00,,---,0.08,VWS V14.01,2013-05-09 19:55:00,
2013-05-09 16:00:00,76.6,53.1,29.94,SW,222,0.0,0.0,44,0.00,,---,0.08,VWS V14.01,2013-05-09 20:00:00,
2013-05-09 16:05:00,76.3,52.8,29.94,WNW,291,0.0,2.2,44,0.00,,---,0.08,VWS V14.01,2013-05-09 20:05:00,
2013-05-09 16:10:00,76.5,52.3,29.94,North,3,0.0,0.0,43,0.00,,---,0.08,VWS V14.01,2013-05-09 20:10:00,
2013-05-09 16:15:00,76.5,53.0,29.94,West,266,0.0,0.0,44,0.00,,---,0.08,VWS V14.01,2013-05-09 20:15:00,
2013-05-09 16:20:00,76.6,52.5,29.94,NW,319,2.7,2.7,43,0.00,,---,0.08,VWS V14.01,2013-05-09 20:20:00,
2013-05-09 16:25:00,76.8,52.7,29.94,NNW,332,0.0,0.0,43,0.00,,---,0.08,VWS V14.01,2013-05-09 20:25:00,
2013-05-09 16:30:00,76.6,53.7,29.94,North,353,0.0,0.0,45,0.00,,---,0.08,VWS V14.01,2013-05-09 20:30:00,
2013-05-09 16:35:00,76.5,53.0,29.94,WNW,285,0.0,0.0,44,0.00,,---,0.08,VWS V14.01,2013-05-09 20:35:00,
2013-05-09 16:40:00,76.6,53.1,29.94,South,171,0.0,0.0,44,0.00,,---,0.08,VWS V14.01,2013-05-09 20:40:00,
2013-05-09 16:45:00,77.0,52.8,29.94,SSW,205,0.0,0.0,43,0.00,,---,0.08,VWS V14.01,2013-05-09 20:45:00,
2013-05-09 16:50:00,77.2,53.0,29.94,SSW,212,0.0,0.0,43,0.00,,---,0.08,VWS V14.01,2013-05-09 20:50:00,
2013-05-09 16:55:00,77.2,53.0,29.94,SSW,212,0.0,0.0,43,0.00,,---,0.08,VWS V14.01,2013-05-09 20:55:00,
2013-05-09 17:00:00,77.4,51.8,29.94,NNW,342,3.6,3.6,41,0.00,,---,0.08,VWS V14.01,2013-05-09 21:00:00,
2013-05-09 17:05:00,77.5,53.3,29.91,ENE,57,0.0,0.0,43,0.00,,---,0.08,VWS V14.01,2013-05-09 21:05:00,
2013-05-09 17:10:00,77.4,52.5,29.91,NNE,22,0.0,0.0,42,0.00,,---,0.08,VWS V14.01,2013-05-09 21:10:00,
2013-05-09 17:15:00,77.5,52.7,29.91,SW,236,2.7,2.7,42,0.00,,---,0.08,VWS V14.01,2013-05-09 21:15:00,
2013-05-09 17:20:00,77.7,52.2,29.91,NW,321,0.0,2.2,41,0.00,,---,0.08,VWS V14.01,2013-05-09 21:20:00,
2013-05-09 17:25:00,77.5,52.0,29.91,NW,313,0.0,0.0,41,0.00,,---,0.08,VWS V14.01,2013-05-09 21:25:00,
2013-05-09 17:30:00,77.4,52.5,29.91,NE,36,0.0,0.0,42,0.00,,---,0.08,VWS V14.01,2013-05-09 21:30:00,
2013-05-09 17:35:00,77.4,53.1,29.94,SE,143,0.0,0.0,43,0.00,,---,0.08,VWS V14.01,2013-05-09 21:35:00,
2013-05-09 17:40:00,77.4,52.5,29.94,SE,143,0.0,0.0,42,0.00,,---,0.08,VWS V14.01,2013-05-09 21:40:00,
2013-05-09 17:45:00,77.5,52.0,29.94,SSW,193,0.0,0.0,41,0.00,,---,0.08,VWS V14.01,2013-05-09 21:45:00,
2013-05-09 17:50:00,77.7,51.5,29.91,SSW,207,0.0,0.0,40,0.00,,---,0.08,VWS V14.01,2013-05-09 21:50:00,
2013-05-09 17:55:00,77.9,52.3,29.91,NW,306,0.0,0.0,41,0.00,,---,0.08,VWS V14.01,2013-05-09 21:55:00,
2013-05-09 18:00:00,77.7,52.2,29.91,WNW,303,0.0,0.0,41,0.00,,---,0.08,VWS V14.01,2013-05-09 22:00:00,
2013-05-09 18:05:00,77.5,51.3,29.91,NNW,348,0.0,0.0,40,0.00,,---,0.08,VWS V14.01,2013-05-09 22:05:00,
2013-05-09 18:10:00,77.4,51.8,29.91,NNW,348,0.0,0.0,41,0.00,,---,0.08,VWS V14.01,2013-05-09 22:10:00,
2013-05-09 18:15:00,77.2,51.7,29.91,NNW,329,0.0,0.0,41,0.00,,---,0.08,VWS V14.01,2013-05-09 22:15:00,
2013-05-09 18:20:00,76.8,52.0,29.91,WNW,292,0.0,0.0,42,0.00,,---,0.08,VWS V14.01,2013-05-09 22:20:00,
2013-05-09 18:25:00,76.5,52.3,29.91,WNW,292,0.0,0.0,43,0.00,,---,0.08,VWS V14.01,2013-05-09 22:25:00,
2013-05-09 18:30:00,76.3,52.2,29.91,WNW,292,0.0,0.0,43,0.00,,---,0.08,VWS V14.01,2013-05-09 22:30:00,
2013-05-09 18:35:00,76.1,52.0,29.91,WNW,292,0.0,0.0,43,0.00,,---,0.08,VWS V14.01,2013-05-09 22:35:00,
2013-05-09 18:40:00,75.9,51.2,29.91,WNW,292,0.0,0.0,42,0.00,,---,0.08,VWS V14.01,2013-05-09 22:40:00,
2013-05-09 18:45:00,75.7,51.0,29.91,WNW,292,0.0,0.0,42,0.00,,---,0.08,VWS V14.01,2013-05-09 22:45:00,
2013-05-09 18:50:00,75.6,50.9,29.91,WNW,292,0.0,0.0,42,0.00,,---,0.08,VWS V14.01,2013-05-09 22:50:00,
2013-05-09 18:55:00,75.2,51.8,29.91,NNW,346,0.0,0.0,44,0.00,,---,0.08,VWS V14.01,2013-05-09 22:55:00,
2013-05-09 19:00:00,74.8,52.1,29.91,NNW,346,0.0,0.0,45,0.00,,---,0.08,VWS V14.01,2013-05-09 23:00:00,
2013-05-09 19:05:00,74.5,52.4,29.94,SW,236,0.0,0.0,46,0.00,,---,0.08,VWS V14.01,2013-05-09 23:05:00,
2013-05-09 19:10:00,74.3,52.8,29.94,SW,236,0.0,0.0,47,0.04,,---,0.12,VWS V14.01,2013-05-09 23:10:00,
2013-05-09 19:15:00,74.1,52.6,29.94,SW,236,0.0,0.0,47,0.04,,---,0.12,VWS V14.01,2013-05-09 23:15:00,
2013-05-09 19:20:00,73.9,52.5,29.94,SW,236,0.0,0.0,47,0.04,,---,0.12,VWS V14.01,2013-05-09 23:20:00,
2013-05-09 19:25:00,73.6,52.7,29.94,SW,236,0.0,0.0,48,0.04,,---,0.12,VWS V14.01,2013-05-09 23:25:00,
2013-05-09 19:30:00,73.2,52.9,29.94,SW,236,0.0,0.0,49,0.04,,---,0.12,VWS V14.01,2013-05-09 23:30:00,
2013-05-09 19:35:00,73.0,53.3,29.94,WSW,252,0.0,0.0,50,0.04,,---,0.12,VWS V14.01,2013-05-09 23:35:00,
2013-05-09 19:40:00,72.9,53.2,29.94,WSW,252,0.0,0.0,50,0.04,,---,0.12,VWS V14.01,2013-05-09 23:40:00,
2013-05-09 19:45:00,72.3,53.2,29.94,WSW,252,0.0,0.0,51,0.04,,---,0.12,VWS V14.01,2013-05-09 23:45:00,
2013-05-09 19:50:00,72.0,53.9,29.94,WSW,252,0.0,0.0,53,0.04,,---,0.12,VWS V14.01,2013-05-09 23:50:00,
2013-05-09 19:55:00,71.6,54.1,29.94,WSW,252,0.0,0.0,54,0.04,,---,0.12,VWS V14.01,2013-05-09 23:55:00,
2013-05-09 20:00:00,71.1,54.1,29.94,WSW,252,0.0,0.0,55,0.04,,---,0.12,VWS V14.01,2013-05-10 00:00:00,
2013-05-09 20:05:00,70.7,54.2,29.94,WSW,252,0.0,0.0,56,0.04,,---,0.12,VWS V14.01,2013-05-10 00:05:00,
2013-05-09 20:10:00,70.3,54.4,29.94,WSW,252,0.0,0.0,57,0.00,,---,0.12,VWS V14.01,2013-05-10 00:10:00,
2013-05-09 20:15:00,70.2,54.2,29.94,WSW,252,0.0,0.0,57,0.00,,---,0.12,VWS V14.01,2013-05-10 00:15:00,
2013-05-09 20:20:00,70.0,54.5,29.94,WSW,252,0.0,0.0,58,0.00,,---,0.12,VWS V14.01,2013-05-10 00:20:00,
2013-05-09 20:25:00,69.6,55.1,29.94,WSW,252,0.0,0.0,60,0.00,,---,0.12,VWS V14.01,2013-05-10 00:25:00,
2013-05-09 20:30:00,69.4,55.4,29.94,WSW,252,0.0,0.0,61,0.00,,---,0.12,VWS V14.01,2013-05-10 00:30:00,
2013-05-09 20:35:00,68.9,55.8,29.97,WSW,252,0.0,0.0,63,0.00,,---,0.12,VWS V14.01,2013-05-10 00:35:00,
2013-05-09 20:40:00,68.4,56.2,29.97,WSW,252,0.0,0.0,65,0.00,,---,0.12,VWS V14.01,2013-05-10 00:40:00,
2013-05-09 20:45:00,68.0,56.7,29.97,WSW,252,0.0,0.0,67,0.00,,---,0.12,VWS V14.01,2013-05-10 00:45:00,
2013-05-09 20:50:00,67.6,57.1,29.97,WSW,252,0.0,0.0,69,0.00,,---,0.12,VWS V14.01,2013-05-10 00:50:00,
2013-05-09 20:55:00,67.3,57.6,29.97,WSW,252,0.0,0.0,71,0.00,,---,0.12,VWS V14.01,2013-05-10 00:55:00,
2013-05-09 21:00:00,66.9,57.6,29.97,WSW,252,0.0,0.0,72,0.00,,---,0.12,VWS V14.01,2013-05-10 01:00:00,
2013-05-09 21:05:00,66.6,57.7,29.97,WSW,252,0.0,0.0,73,0.00,,---,0.12,VWS V14.01,2013-05-10 01:05:00,
2013-05-09 21:10:00,66.2,57.7,29.97,WSW,252,0.0,0.0,74,0.00,,---,0.12,VWS V14.01,2013-05-10 01:10:00,
2013-05-09 21:15:00,66.0,57.9,29.97,WSW,252,0.0,0.0,75,0.00,,---,0.12,VWS V14.01,2013-05-10 01:15:00,
2013-05-09 21:20:00,65.7,57.9,29.97,WSW,252,0.0,0.0,76,0.00,,---,0.12,VWS V14.01,2013-05-10 01:20:00,
2013-05-09 21:25:00,65.5,58.1,29.97,WSW,252,0.0,0.0,77,0.00,,---,0.12,VWS V14.01,2013-05-10 01:25:00,
2013-05-09 21:30:00,65.3,58.3,29.97,WSW,252,0.0,0.0,78,0.00,,---,0.12,VWS V14.01,2013-05-10 01:30:00,
2013-05-09 21:35:00,65.1,58.1,29.97,WSW,252,0.0,0.0,78,0.00,,---,0.12,VWS V14.01,2013-05-10 01:35:00,
2013-05-09 21:40:00,64.8,58.1,29.97,WSW,252,0.0,0.0,79,0.00,,---,0.12,VWS V14.01,2013-05-10 01:40:00,
2013-05-09 21:45:00,64.6,57.9,29.97,WSW,252,0.0,0.0,79,0.00,,---,0.12,VWS V14.01,2013-05-10 01:45:00,
2013-05-09 21:50:00,64.6,58.3,29.97,WSW,252,0.0,0.0,80,0.00,,---,0.12,VWS V14.01,2013-05-10 01:50:00,
2013-05-09 21:55:00,64.4,58.1,29.97,WSW,252,0.0,0.0,80,0.00,,---,0.12,VWS V14.01,2013-05-10 01:55:00,
2013-05-09 22:00:00,64.0,58.1,29.97,WSW,252,0.0,0.0,81,0.00,,---,0.12,VWS V14.01,2013-05-10 02:00:00,
2013-05-09 22:05:00,63.9,58.3,29.97,WSW,252,0.0,0.0,82,0.00,,---,0.12,VWS V14.01,2013-05-10 02:05:00,
2013-05-09 22:10:00,63.7,58.1,29.97,WSW,252,0.0,0.0,82,0.00,,---,0.12,VWS V14.01,2013-05-10 02:10:00,
2013-05-09 22:15:00,63.5,58.2,29.97,WSW,252,0.0,0.0,83,0.00,,---,0.12,VWS V14.01,2013-05-10 02:15:00,
2013-05-09 22:20:00,63.5,58.2,29.97,WSW,252,0.0,0.0,83,0.00,,---,0.12,VWS V14.01,2013-05-10 02:20:00,
2013-05-09 22:25:00,63.3,58.4,29.97,WSW,252,0.0,0.0,84,0.00,,---,0.12,VWS V14.01,2013-05-10 02:25:00,
2013-05-09 22:30:00,63.1,58.6,29.97,WSW,252,0.0,0.0,85,0.00,,---,0.12,VWS V14.01,2013-05-10 02:30:00,
2013-05-09 22:35:00,63.0,58.4,29.97,WSW,252,0.0,0.0,85,0.00,,---,0.12,VWS V14.01,2013-05-10 02:35:00,
2013-05-09 22:40:00,62.8,58.5,29.97,WSW,252,0.0,0.0,86,0.00,,---,0.12,VWS V14.01,2013-05-10 02:40:00,
2013-05-09 22:45:00,62.6,58.4,29.97,WSW,252,0.0,0.0,86,0.00,,---,0.12,VWS V14.01,2013-05-10 02:45:00,
2013-05-09 22:50:00,62.6,58.7,30.00,WSW,252,0.0,0.0,87,0.00,,---,0.12,VWS V14.01,2013-05-10 02:50:00,
2013-05-09 22:55:00,62.4,58.8,30.00,WSW,252,0.0,0.0,88,0.00,,---,0.12,VWS V14.01,2013-05-10 02:55:00,
2013-05-09 23:00:00,62.4,58.8,30.00,WSW,252,0.0,0.0,88,0.00,,---,0.12,VWS V14.01,2013-05-10 03:00:00,
2013-05-09 23:05:00,62.2,58.7,30.00,WSW,252,0.0,0.0,88,0.00,,---,0.12,VWS V14.01,2013-05-10 03:05:00,
2013-05-09 23:10:00,62.1,58.8,30.00,WSW,252,0.0,0.0,89,0.00,,---,0.12,VWS V14.01,2013-05-10 03:10:00,
2013-05-09 23:15:00,61.9,58.6,30.00,WSW,252,0.0,0.0,89,0.00,,---,0.12,VWS V14.01,2013-05-10 03:15:00,
2013-05-09 23:20:00,61.9,58.6,30.00,WSW,252,0.0,0.0,89,0.00,,---,0.12,VWS V14.01,2013-05-10 03:20:00,
2013-05-09 23:25:00,61.7,58.7,30.00,WSW,252,0.0,0.0,90,0.00,,---,0.12,VWS V14.01,2013-05-10 03:25:00,
2013-05-09 23:30:00,61.7,58.7,30.00,WSW,252,0.0,0.0,90,0.00,,---,0.12,VWS V14.01,2013-05-10 03:30:00,
2013-05-09 23:35:00,61.5,58.6,29.97,WSW,252,0.0,0.0,90,0.00,,---,0.12,VWS V14.01,2013-05-10 03:35:00,
2013-05-09 23:40:00,61.3,58.4,29.97,WSW,252,0.0,0.0,90,0.00,,---,0.12,VWS V14.01,2013-05-10 03:40:00,
2013-05-09 23:45:00,61.3,58.4,29.97,WSW,252,0.0,0.0,90,0.00,,---,0.12,VWS V14.01,2013-05-10 03:45:00,
2013-05-09 23:50:00,61.2,58.2,29.97,WSW,252,0.0,0.0,90,0.00,,---,0.12,VWS V14.01,2013-05-10 03:50:00,
2013-05-09 23:55:00,61.0,58.3,29.97,WSW,252,0.0,0.0,91,0.00,,---,0.12,VWS V14.01,2013-05-10 03:55:00,